This is the latest recevied weather packets stored in our database for station/object WA4IKQ. If no packets are shown the sender has not sent any weather packets the latest 10 day(s).
| Time | Temp. | Humidity | Pressure | Rain* | Wind** | Luminosity | Snow |
|---|---|---|---|---|---|---|---|
| 1777053577 | 28.89° C | 43% | 1013 hPa | 0 mm | 0 m/s | - | - |
| 1777053395 | 28.89° C | 43% | 1013.1 hPa | 0 mm | 0.45 m/s, 83° | - | - |
| 1777053278 | 28.89° C | 43% | 1013.1 hPa | 0 mm | 0.45 m/s, 83° | - | - |
| 1777053130 | 28.33° C | 45% | 1013.2 hPa | 0 mm | 2.24 m/s, 103° | - | - |
| 1777052978 | 28.33° C | 45% | 1013.2 hPa | 0 mm | 2.24 m/s, 103° | - | - |
| 1777052678 | 27.78° C | 46% | 1013.2 hPa | 0 mm | 0.45 m/s, 180° | - | - |
| 1777052516 | 27.78° C | 45% | 1013.3 hPa | 0 mm | 2.68 m/s, 172° | - | - |
| 1777052376 | 27.78° C | 45% | 1013.3 hPa | 0 mm | 2.68 m/s, 172° | - | - |
| 1777051692 | 27.78° C | 45% | 1013.5 hPa | 0 mm | 0.89 m/s, 52° | - | - |
| 1777051477 | 27.78° C | 45% | 1013.5 hPa | 0 mm | 0.89 m/s, 52° | - | - |
| 1777051415 | 27.78° C | 46% | 1013.5 hPa | 0 mm | 0.89 m/s, 52° | - | - |
| 1777051177 | 27.78° C | 46% | 1013.5 hPa | 0 mm | 0.89 m/s, 52° | - | - |
| 1777051124 | 27.78° C | 45% | 1013.6 hPa | 0 mm | 0 m/s | - | - |
| 1777050878 | 27.78° C | 45% | 1013.6 hPa | 0 mm | 0 m/s | - | - |
| 1777050810 | 27.78° C | 45% | 1013.6 hPa | 0 mm | 2.24 m/s, 354° | - | - |
| 1777050753 | 27.78° C | 45% | 1013.6 hPa | 0 mm | 2.24 m/s, 354° | - | - |
| 1777050578 | 27.78° C | 45% | 1013.6 hPa | 0 mm | 2.24 m/s, 354° | - | - |
| 1777050100 | 27.78° C | 45% | 1013.9 hPa | 0 mm | 0.89 m/s, 76° | - | - |
| 1777049976 | 27.78° C | 45% | 1013.9 hPa | 0 mm | 0.89 m/s, 76° | - | - |
| 1777049625 | 27.78° C | 46% | 1013.9 hPa | 0 mm | 1.34 m/s, 90° | - | - |
| 1777049376 | 27.78° C | 46% | 1013.9 hPa | 0 mm | 1.34 m/s, 90° | - | - |
| 1777049292 | 27.78° C | 47% | 1013.9 hPa | 0 mm | 1.34 m/s, 27° | - | - |
| 1777048925 | 27.22° C | 47% | 1014 hPa | 0 mm | 1.34 m/s, 191° | - | - |
| 1777048777 | 27.22° C | 47% | 1014 hPa | 0 mm | 1.34 m/s, 191° | - | - |
| 1777048691 | 27.22° C | 48% | 1014.2 hPa | 0 mm | 0.89 m/s, 127° | - | - |
* Rain latest hour (hover to see other rain measurements)
** Current wind speed in m/s (hover to see current wind gust speed)